Time,TemperatureF,DewpointF,PressureIn,WindDirection,WindDirectionDegrees,WindSpeedMPH,WindSpeedGustMPH,Humidity,HourlyPrecipIn,Conditions,Clouds,dailyrainin,SoftwareType,DateUTC
2013-02-02 00:02:00,7.0,-1.0,30.22,WNW,300,1.0,7.0,70,0.00,,,0.00,,2013-02-02 06:02:00,
2013-02-02 00:12:00,7.0,-1.0,30.22,WNW,300,1.0,7.0,70,0.00,,,0.00,,2013-02-02 06:12:00,
2013-02-02 00:22:00,7.0,-1.0,30.23,West,263,1.0,9.0,69,0.00,,,0.00,,2013-02-02 06:22:00,
2013-02-02 00:31:00,7.0,-1.0,30.23,NNW,348,1.0,8.0,69,0.00,,,0.00,,2013-02-02 06:31:00,
2013-02-02 00:41:00,7.0,-1.0,30.23,NNW,348,1.0,8.0,69,0.00,,,0.00,,2013-02-02 06:41:00,
2013-02-02 00:51:00,7.0,-1.0,30.23,WNW,294,2.0,8.0,69,0.00,,,0.00,,2013-02-02 06:51:00,
2013-02-02 01:02:00,6.0,-2.0,30.23,NNW,335,2.0,8.0,69,0.00,,,0.00,,2013-02-02 07:02:00,
2013-02-02 01:12:00,6.0,-2.0,30.23,NNW,335,2.0,8.0,69,0.00,,,0.00,,2013-02-02 07:12:00,
2013-02-02 01:21:00,6.0,-2.0,30.23,North,5,2.0,7.0,68,0.00,,,0.00,,2013-02-02 07:21:00,
2013-02-02 01:31:00,6.0,-2.0,30.24,WNW,287,2.0,7.0,68,0.00,,,0.00,,2013-02-02 07:31:00,
2013-02-02 01:42:00,6.0,-2.0,30.24,WNW,287,2.0,7.0,68,0.00,,,0.00,,2013-02-02 07:42:00,
2013-02-02 01:51:00,6.0,-3.0,30.24,WNW,303,2.0,7.0,67,0.00,,,0.00,,2013-02-02 07:51:00,
2013-02-02 02:01:00,6.0,-3.0,30.24,WNW,303,2.0,7.0,67,0.00,,,0.00,,2013-02-02 08:01:00,
2013-02-02 02:11:00,6.0,-3.0,30.24,WNW,303,2.0,7.0,67,0.00,,,0.00,,2013-02-02 08:11:00,
2013-02-02 02:21:00,5.0,-4.0,30.25,NW,321,3.0,8.0,67,0.00,,,0.00,,2013-02-02 08:21:00,
2013-02-02 02:31:00,5.0,-4.0,30.26,West,279,1.0,5.0,67,0.00,,,0.00,,2013-02-02 08:31:00,
2013-02-02 02:41:00,5.0,-4.0,30.26,West,279,1.0,5.0,67,0.00,,,0.00,,2013-02-02 08:41:00,
2013-02-02 02:52:00,5.0,-4.0,30.27,NW,323,1.0,7.0,67,0.00,,,0.00,,2013-02-02 08:52:00,
2013-02-02 03:01:00,5.0,-4.0,30.27,NNW,327,1.0,6.0,67,0.00,,,0.00,,2013-02-02 09:01:00,
2013-02-02 03:11:00,5.0,-4.0,30.27,NNW,327,1.0,6.0,67,0.00,,,0.00,,2013-02-02 09:11:00,
2013-02-02 03:22:00,5.0,-4.0,30.27,NW,306,1.0,4.0,67,0.00,,,0.00,,2013-02-02 09:22:00,
2013-02-02 03:31:00,5.0,-4.0,30.28,NW,307,1.0,7.0,66,0.00,,,0.00,,2013-02-02 09:31:00,
2013-02-02 03:42:00,5.0,-4.0,30.28,NW,307,1.0,7.0,66,0.00,,,0.00,,2013-02-02 09:42:00,
2013-02-02 03:52:00,5.0,-4.0,30.28,WNW,290,1.0,7.0,66,0.00,,,0.00,,2013-02-02 09:52:00,
2013-02-02 04:01:00,5.0,-4.0,30.27,NNW,342,1.0,6.0,66,0.00,,,0.00,,2013-02-02 10:01:00,
2013-02-02 04:11:00,5.0,-4.0,30.27,NNW,342,1.0,6.0,66,0.00,,,0.00,,2013-02-02 10:11:00,
2013-02-02 04:21:00,4.0,-5.0,30.27,NNW,330,2.0,9.0,66,0.00,,,0.00,,2013-02-02 10:21:00,
2013-02-02 04:31:00,4.0,-5.0,30.28,NW,309,3.0,6.0,66,0.00,,,0.00,,2013-02-02 10:31:00,
2013-02-02 04:42:00,4.0,-5.0,30.28,NW,309,3.0,6.0,66,0.00,,,0.00,,2013-02-02 10:42:00,
2013-02-02 04:52:00,4.0,-4.0,30.28,NW,319,2.0,5.0,67,0.00,,,0.00,,2013-02-02 10:52:00,
2013-02-02 05:01:00,3.0,-5.0,30.28,NW,320,0.0,5.0,67,0.00,,,0.00,,2013-02-02 11:01:00,
2013-02-02 05:11:00,3.0,-5.0,30.28,NW,320,0.0,5.0,67,0.00,,,0.00,,2013-02-02 11:11:00,
2013-02-02 05:21:00,3.0,-5.0,30.29,North,350,1.0,5.0,67,0.00,,,0.00,,2013-02-02 11:21:00,
2013-02-02 05:32:00,3.0,-5.0,30.29,NNW,348,0.0,4.0,67,0.00,,,0.00,,2013-02-02 11:32:00,
2013-02-02 05:42:00,3.0,-5.0,30.29,NNW,348,0.0,4.0,67,0.00,,,0.00,,2013-02-02 11:42:00,
2013-02-02 05:52:00,3.0,-5.0,30.29,NNW,340,0.0,5.0,67,0.00,,,0.00,,2013-02-02 11:52:00,
2013-02-02 06:01:00,2.0,-6.0,30.29,NW,325,0.0,3.0,67,0.00,,,0.00,,2013-02-02 12:01:00,
2013-02-02 06:11:00,2.0,-6.0,30.29,NW,325,0.0,3.0,67,0.00,,,0.00,,2013-02-02 12:11:00,
2013-02-02 06:22:00,2.0,-6.0,30.29,North,350,0.0,3.0,67,0.00,,,0.00,,2013-02-02 12:22:00,
2013-02-02 06:32:00,2.0,-6.0,30.28,NNE,15,0.0,3.0,67,0.00,,,0.00,,2013-02-02 12:32:00,
2013-02-02 06:42:00,2.0,-6.0,30.28,NNE,15,0.0,3.0,67,0.00,,,0.00,,2013-02-02 12:42:00,
2013-02-02 06:52:00,2.0,-6.0,30.28,NNE,18,0.0,1.0,67,0.00,,,0.00,,2013-02-02 12:52:00,
2013-02-02 07:03:00,1.0,-7.0,30.28,NNE,18,0.0,0.0,67,0.00,,,0.00,,2013-02-02 13:03:00,
2013-02-02 07:11:00,1.0,-7.0,30.28,NNE,18,0.0,0.0,67,0.00,,,0.00,,2013-02-02 13:11:00,
2013-02-02 07:21:00,1.0,-7.0,30.27,NNE,31,0.0,2.0,67,0.00,,,0.00,,2013-02-02 13:21:00,
2013-02-02 07:32:00,0.0,-8.0,30.28,NNE,32,0.0,1.0,67,0.00,,,0.00,,2013-02-02 13:32:00,
2013-02-02 07:42:00,0.0,-8.0,30.28,NNE,32,0.0,1.0,67,0.00,,,0.00,,2013-02-02 13:42:00,
2013-02-02 07:52:00,0.0,-8.0,30.28,NNE,32,0.0,2.0,68,0.00,,,0.00,,2013-02-02 13:52:00,
2013-02-02 08:02:00,0.0,-8.0,30.28,NNE,32,0.0,2.0,68,0.00,,,0.00,,2013-02-02 14:02:00,
2013-02-02 08:11:00,0.0,-8.0,30.28,NNE,32,0.0,2.0,68,0.00,,,0.00,,2013-02-02 14:11:00,
2013-02-02 08:22:00,0.0,-8.0,30.27,East,101,1.0,5.0,68,0.00,,,0.00,,2013-02-02 14:22:00,
2013-02-02 08:32:00,0.0,-8.0,30.27,ESE,103,1.0,3.0,68,0.00,,,0.00,,2013-02-02 14:32:00,
2013-02-02 08:42:00,0.0,-8.0,30.27,ESE,103,1.0,3.0,68,0.00,,,0.00,,2013-02-02 14:42:00,
2013-02-02 08:52:00,0.0,-8.0,30.26,East,99,3.0,5.0,68,0.00,,,0.00,,2013-02-02 14:52:00,
2013-02-02 09:03:00,0.0,-8.0,30.26,ESE,119,2.0,4.0,68,0.00,,,0.00,,2013-02-02 15:03:00,
2013-02-02 09:12:00,0.0,-8.0,30.26,ESE,119,2.0,4.0,68,0.00,,,0.00,,2013-02-02 15:12:00,
2013-02-02 09:22:00,0.0,-8.0,30.26,SE,134,1.0,4.0,68,0.00,,,0.00,,2013-02-02 15:22:00,
2013-02-02 09:32:00,0.0,-8.0,30.26,SE,134,1.0,4.0,68,0.00,,,0.00,,2013-02-02 15:32:00,
2013-02-02 09:42:00,0.0,-8.0,30.26,SE,134,1.0,4.0,68,0.00,,,0.00,,2013-02-02 15:42:00,
2013-02-02 09:52:00,1.0,-7.0,30.27,ESE,120,2.0,4.0,68,0.00,,,0.00,,2013-02-02 15:52:00,
2013-02-02 10:03:00,1.0,-7.0,30.26,SE,139,1.0,5.0,67,0.00,,,0.00,,2013-02-02 16:03:00,
2013-02-02 10:11:00,1.0,-7.0,30.26,SE,139,1.0,5.0,67,0.00,,,0.00,,2013-02-02 16:11:00,
2013-02-02 10:22:00,1.0,-7.0,30.25,ESE,117,2.0,5.0,68,0.00,,,0.00,,2013-02-02 16:22:00,
2013-02-02 10:32:00,2.0,-6.0,30.26,ESE,115,2.0,5.0,68,0.00,,,0.00,,2013-02-02 16:32:00,
2013-02-02 10:42:00,2.0,-6.0,30.26,ESE,115,2.0,5.0,68,0.00,,,0.00,,2013-02-02 16:42:00,
2013-02-02 10:52:00,2.0,-6.0,30.25,SE,138,4.0,7.0,67,0.00,,,0.00,,2013-02-02 16:52:00,
2013-02-02 11:02:00,3.0,-5.0,30.25,SSE,163,4.0,7.0,68,0.00,,,0.00,,2013-02-02 17:02:00,
2013-02-02 11:11:00,3.0,-5.0,30.25,SSE,163,4.0,7.0,68,0.00,,,0.00,,2013-02-02 17:11:00,
2013-02-02 11:22:00,4.0,-4.0,30.24,ESE,109,4.0,9.0,67,0.00,,,0.00,,2013-02-02 17:22:00,
2013-02-02 11:32:00,4.0,-5.0,30.23,SE,128,5.0,10.0,66,0.00,,,0.00,,2013-02-02 17:32:00,
2013-02-02 11:42:00,4.0,-5.0,30.23,SE,128,5.0,10.0,66,0.00,,,0.00,,2013-02-02 17:42:00,
2013-02-02 11:52:00,5.0,-4.0,30.23,South,169,5.0,8.0,65,0.00,,,0.00,,2013-02-02 17:52:00,
2013-02-02 12:02:00,6.0,-3.0,30.21,SE,144,5.0,10.0,65,0.00,,,0.00,,2013-02-02 18:02:00,
2013-02-02 12:12:00,6.0,-3.0,30.21,SE,144,5.0,10.0,65,0.00,,,0.00,,2013-02-02 18:12:00,
2013-02-02 12:22:00,6.0,-3.0,30.21,SE,144,5.0,10.0,65,0.00,,,0.00,,2013-02-02 18:22:00,
2013-02-02 12:32:00,6.0,-3.0,30.18,SE,129,6.0,13.0,66,0.00,,,0.00,,2013-02-02 18:32:00,
2013-02-02 12:42:00,6.0,-3.0,30.18,SE,129,6.0,13.0,66,0.00,,,0.00,,2013-02-02 18:42:00,
2013-02-02 12:52:00,7.0,-2.0,30.16,SSE,153,6.0,15.0,66,0.00,,,0.00,,2013-02-02 18:52:00,
2013-02-02 13:02:00,7.0,-2.0,30.15,SE,133,5.0,11.0,66,0.00,,,0.00,,2013-02-02 19:02:00,
2013-02-02 13:12:00,7.0,-2.0,30.15,SE,133,5.0,11.0,66,0.00,,,0.00,,2013-02-02 19:12:00,
2013-02-02 13:21:00,8.0,-1.0,30.14,SE,142,6.0,11.0,67,0.00,,,0.00,,2013-02-02 19:21:00,
2013-02-02 13:32:00,8.0,-1.0,30.13,ESE,102,5.0,11.0,67,0.00,,,0.00,,2013-02-02 19:32:00,
2013-02-02 13:42:00,8.0,-1.0,30.13,ESE,102,5.0,11.0,67,0.00,,,0.00,,2013-02-02 19:42:00,
2013-02-02 13:51:00,9.0,0.0,30.12,ESE,121,7.0,12.0,67,0.00,,,0.00,,2013-02-02 19:51:00,
2013-02-02 14:01:00,9.0,1.0,30.11,SSE,157,6.0,12.0,68,0.00,,,0.00,,2013-02-02 20:01:00,
2013-02-02 14:11:00,9.0,1.0,30.11,SSE,157,6.0,12.0,68,0.00,,,0.00,,2013-02-02 20:11:00,
2013-02-02 14:21:00,9.0,1.0,30.11,SSE,157,6.0,12.0,68,0.00,,,0.00,,2013-02-02 20:21:00,
2013-02-02 14:32:00,10.0,2.0,30.07,SSE,155,7.0,13.0,70,0.00,,,0.00,,2013-02-02 20:32:00,
2013-02-02 14:42:00,10.0,2.0,30.07,SSE,155,7.0,13.0,70,0.00,,,0.00,,2013-02-02 20:42:00,
2013-02-02 14:52:00,10.0,2.0,30.06,SSE,149,6.0,13.0,70,0.00,,,0.00,,2013-02-02 20:52:00,
2013-02-02 15:02:00,10.0,3.0,30.06,SE,143,6.0,11.0,71,0.00,,,0.00,,2013-02-02 21:02:00,
2013-02-02 15:11:00,10.0,3.0,30.06,SE,143,6.0,11.0,71,0.00,,,0.00,,2013-02-02 21:11:00,
2013-02-02 15:21:00,10.0,3.0,30.05,SE,142,6.0,13.0,72,0.00,,,0.00,,2013-02-02 21:21:00,
2013-02-02 15:32:00,11.0,4.0,30.05,SSE,153,7.0,12.0,72,0.00,,,0.00,,2013-02-02 21:32:00,
2013-02-02 15:42:00,11.0,4.0,30.05,SSE,153,7.0,12.0,72,0.00,,,0.00,,2013-02-02 21:42:00,
2013-02-02 15:52:00,11.0,4.0,30.05,SSE,152,5.0,12.0,72,0.00,,,0.00,,2013-02-02 21:52:00,
2013-02-02 16:02:00,11.0,4.0,30.04,SE,131,5.0,10.0,72,0.00,,,0.00,,2013-02-02 22:02:00,
2013-02-02 16:11:00,11.0,4.0,30.04,SE,131,5.0,10.0,72,0.00,,,0.00,,2013-02-02 22:11:00,
2013-02-02 16:21:00,11.0,4.0,30.03,SE,136,7.0,12.0,72,0.00,,,0.00,,2013-02-02 22:21:00,
2013-02-02 16:32:00,11.0,4.0,30.03,ESE,109,5.0,10.0,72,0.00,,,0.00,,2013-02-02 22:32:00,
2013-02-02 16:42:00,11.0,4.0,30.03,ESE,109,5.0,10.0,72,0.00,,,0.00,,2013-02-02 22:42:00,
2013-02-02 16:52:00,12.0,5.0,30.02,ESE,108,4.0,8.0,72,0.00,,,0.00,,2013-02-02 22:52:00,
2013-02-02 17:02:00,12.0,5.0,30.02,East,101,4.0,7.0,72,0.00,,,0.00,,2013-02-02 23:02:00,
2013-02-02 17:11:00,12.0,5.0,30.02,East,101,4.0,7.0,72,0.00,,,0.00,,2013-02-02 23:11:00,
2013-02-02 17:21:00,12.0,5.0,30.02,ESE,123,4.0,9.0,73,0.00,,,0.00,,2013-02-02 23:21:00,
2013-02-02 17:32:00,12.0,5.0,30.02,ESE,105,3.0,7.0,73,0.00,,,0.00,,2013-02-02 23:32:00,
2013-02-02 17:42:00,12.0,5.0,30.02,ESE,105,3.0,7.0,73,0.00,,,0.00,,2013-02-02 23:42:00,
2013-02-02 17:52:00,12.0,5.0,30.02,ESE,108,3.0,7.0,73,0.00,,,0.00,,2013-02-02 23:52:00,
2013-02-02 18:02:00,12.0,5.0,30.03,East,95,3.0,5.0,73,0.00,,,0.00,,2013-02-03 00:02:00,
2013-02-02 18:11:00,12.0,5.0,30.03,East,95,3.0,5.0,73,0.00,,,0.00,,2013-02-03 00:11:00,
2013-02-02 18:22:00,12.0,5.0,30.04,ENE,69,2.0,4.0,73,0.00,,,0.00,,2013-02-03 00:22:00,
2013-02-02 18:32:00,12.0,5.0,30.05,ENE,69,0.0,4.0,74,0.00,,,0.00,,2013-02-03 00:32:00,
2013-02-02 18:41:00,12.0,5.0,30.05,ENE,69,0.0,4.0,74,0.00,,,0.00,,2013-02-03 00:41:00,
2013-02-02 18:51:00,12.0,5.0,30.06,North,5,0.0,2.0,73,0.00,,,0.00,,2013-02-03 00:51:00,
2013-02-02 19:02:00,12.0,5.0,30.06,North,5,0.0,2.0,73,0.00,,,0.00,,2013-02-03 01:02:00,
2013-02-02 19:11:00,12.0,5.0,30.06,North,5,0.0,2.0,73,0.00,,,0.00,,2013-02-03 01:11:00,
2013-02-02 19:21:00,18.0,11.0,30.08,NW,316,7.0,16.0,73,0.00,,,0.00,,2013-02-03 01:21:00,
2013-02-02 19:32:00,18.0,11.0,30.10,SSW,205,5.0,16.0,72,0.00,,,0.00,,2013-02-03 01:32:00,
2013-02-02 19:42:00,18.0,11.0,30.10,SSW,205,5.0,16.0,72,0.00,,,0.00,,2013-02-03 01:42:00,
2013-02-02 19:52:00,18.0,11.0,30.10,NNE,32,4.0,12.0,72,0.00,,,0.00,,2013-02-03 01:52:00,
2013-02-02 20:01:00,19.0,11.0,30.11,SW,236,7.0,16.0,72,0.00,,,0.00,,2013-02-03 02:01:00,
2013-02-02 20:11:00,19.0,11.0,30.11,SW,236,7.0,16.0,72,0.00,,,0.00,,2013-02-03 02:11:00,
2013-02-02 20:21:00,18.0,10.0,30.12,NE,49,7.0,23.0,70,0.00,,,0.00,,2013-02-03 02:21:00,
2013-02-02 20:32:00,17.0,9.0,30.13,West,263,4.0,18.0,70,0.00,,,0.00,,2013-02-03 02:32:00,
2013-02-02 20:42:00,17.0,9.0,30.13,West,263,4.0,18.0,70,0.00,,,0.00,,2013-02-03 02:42:00,
2013-02-02 20:52:00,17.0,9.0,30.13,NNW,342,6.0,22.0,69,0.00,,,0.00,,2013-02-03 02:52:00,
2013-02-02 21:02:00,17.0,9.0,30.13,WSW,248,4.0,16.0,69,0.00,,,0.00,,2013-02-03 03:02:00,
2013-02-02 21:11:00,17.0,9.0,30.13,WSW,248,4.0,16.0,69,0.00,,,0.00,,2013-02-03 03:11:00,
2013-02-02 21:21:00,17.0,8.0,30.14,NW,314,8.0,20.0,67,0.00,,,0.00,,2013-02-03 03:21:00,
2013-02-02 21:31:00,17.0,8.0,30.14,WSW,250,8.0,18.0,67,0.00,,,0.00,,2013-02-03 03:31:00,
2013-02-02 21:42:00,17.0,8.0,30.14,WSW,250,8.0,18.0,67,0.00,,,0.00,,2013-02-03 03:42:00,
2013-02-02 21:51:00,16.0,7.0,30.14,NW,310,7.0,19.0,67,0.00,,,0.00,,2013-02-03 03:51:00,
2013-02-02 22:01:00,15.0,6.0,30.15,SSW,213,7.0,20.0,68,0.00,,,0.00,,2013-02-03 04:01:00,
2013-02-02 22:11:00,15.0,6.0,30.15,SSW,213,7.0,20.0,68,0.00,,,0.00,,2013-02-03 04:11:00,
2013-02-02 22:21:00,15.0,6.0,30.16,NW,321,7.0,20.0,67,0.00,,,0.00,,2013-02-03 04:21:00,
2013-02-02 22:32:00,15.0,6.0,30.16,WSW,248,8.0,18.0,67,0.00,,,0.00,,2013-02-03 04:32:00,
2013-02-02 22:42:00,15.0,6.0,30.16,WSW,248,8.0,18.0,67,0.00,,,0.00,,2013-02-03 04:42:00,
2013-02-02 22:52:00,13.0,4.0,30.16,West,259,8.0,21.0,66,0.00,,,0.00,,2013-02-03 04:52:00,
2013-02-02 23:03:00,13.0,4.0,30.17,WSW,252,8.0,16.0,66,0.00,,,0.00,,2013-02-03 05:03:00,
2013-02-02 23:11:00,13.0,4.0,30.17,WSW,252,8.0,16.0,66,0.00,,,0.00,,2013-02-03 05:11:00,
2013-02-02 23:22:00,12.0,3.0,30.19,NNE,27,7.0,17.0,66,0.00,,,0.00,,2013-02-03 05:22:00,
2013-02-02 23:32:00,11.0,2.0,30.18,NW,322,5.0,19.0,66,0.00,,,0.00,,2013-02-03 05:32:00,
2013-02-02 23:42:00,11.0,2.0,30.18,NW,322,5.0,19.0,66,0.00,,,0.00,,2013-02-03 05:42:00,
2013-02-02 23:52:00,11.0,2.0,30.19,NW,325,7.0,16.0,67,0.00,,,0.00,,2013-02-03 05:52:00,